GW5604 Weather Reports


Display with metric or nautical units.
time (UTC)temp
F
wind
direction
speed
MPH
gust
MPH
rain 1hr
in
rain 24hr
in
rain mn
in
humidity
%
barometer
mb
20260504184927 62 32 4.0 7.0 0.00 0.00 0.00 48 1016.4
20260504184423 63 294 3.0 5.0 0.00 0.00 0.00 47 1016.6
20260504183919 63 156 0.0 0.0 0.00 0.00 0.00 45 1016.6
20260504183417 65 175 3.0 3.0 0.00 0.00 0.00 44 1016.7
20260504182914 64 208 2.0 3.0 0.00 0.00 0.00 45 1016.8
20260504182411 63 151 1.0 1.0 0.00 0.00 0.00 47 1016.8
20260504181908 62 173 1.0 1.0 0.00 0.00 0.00 49 1016.8
20260504181405 62 34 2.0 2.0 0.00 0.00 0.00 50 1016.8
20260504180904 62 149 1.0 1.0 0.00 0.00 0.00 48 1017.1
20260504180402 64 196 2.0 2.0 0.00 0.00 0.00 47 1017.0
20260504175900 64 168 1.0 2.0 0.00 0.00 0.00 43 1016.8
20260504175356 63 99 4.0 6.0 0.00 0.00 0.00 42 1017.0
20260504174854 63 57 3.0 5.0 0.00 0.00 0.00 45 1016.7
20260504174352 62 121 1.0 1.0 0.00 0.00 0.00 46 1016.8
20260504173849 61 130 4.0 6.0 0.00 0.00 0.00 45 1017.0
20260504173345 61 151 10.0 13.0 0.00 0.00 0.00 44 1016.6
20260504172842 62 77 6.0 9.0 0.00 0.00 0.00 42 1016.8
20260504172339 62 131 4.0 5.0 0.00 0.00 0.00 43 1017.1
20260504171835 61 131 1.0 2.0 0.00 0.00 0.00 48 1017.2
20260504171332 62 90 3.0 3.0 0.00 0.00 0.00 44 1017.1
20260504170830 61 125 2.0 2.0 0.00 0.00 0.00 45 1017.1
20260504170326 62 103 6.0 8.0 0.00 0.00 0.00 43 1017.1
20260504160244 56 137 11.0 17.0 0.00 0.00 0.00 51 1017.7
20260504150710 51 190 10.0 13.0 0.00 0.00 0.00 59 1018.8
20260504150207 51 102 5.0 8.0 0.00 0.00 0.00 58 1018.8
20260504141136 53 141 11.0 13.0 0.00 0.00 0.00 55 1018.1
20260504140632 53 142 5.0 9.0 0.00 0.00 0.00 56 1018.2
20260504140128 53 81 5.0 7.0 0.00 0.00 0.00 55 1018.3
20260504130556 50 137 2.0 2.0 0.00 0.00 0.00 61 1017.4
20260504110444 44 150 1.0 1.0 0.00 0.00 0.00 68 1016.8
20260504100407 44 136 2.0 2.0 0.00 0.00 0.00 66 1016.6
20260504081800 45 112 6.0 8.0 0.00 0.00 0.00 60 1016.1
20260504081256 45 117 10.0 14.0 0.00 0.00 0.00 60 1015.9
20260504080753 45 145 8.0 10.0 0.00 0.00 0.00 59 1016.2
20260504080249 45 118 6.0 8.0 0.00 0.00 0.00 59 1016.2
20260504070217 45 108 3.0 3.0 0.00 0.00 0.00 53 1016.6
20260504060137 46 136 2.0 2.0 0.00 0.00 0.00 46 1016.8
20260504050605 45 139 2.0 2.0 0.00 0.00 0.00 52 1017.4
20260504045559 45 104 2.0 2.0 0.00 0.00 0.00 53 1017.2
20260504045054 45 130 2.0 2.0 0.00 0.00 0.00 51 1017.5
20260504044552 45 123 1.0 2.0 0.00 0.00 0.00 51 1017.4
20260504044049 45 73 4.0 5.0 0.00 0.00 0.00 53 1017.2
20260504043546 45 126 2.0 2.0 0.00 0.00 0.00 52 1017.1
20260504043043 45 133 2.0 2.0 0.00 0.00 0.00 52 1017.0
20260504042540 44 140 2.0 2.0 0.00 0.00 0.00 51 1017.1
20260504042037 44 146 1.0 1.0 0.00 0.00 0.00 52 1017.0
20260504041533 45 154 1.0 1.0 0.00 0.00 0.00 51 1017.0
20260504041029 45 120 2.0 2.0 0.00 0.00 0.00 50 1017.0
20260504040527 45 93 3.0 3.0 0.00 0.00 0.00 50 1016.8
20260504040023 45 145 1.0 1.0 0.00 0.00 0.00 49 1017.1
20260504035520 45 144 2.0 2.0 0.00 0.00 0.00 47 1017.4
20260504035016 45 144 1.0 1.0 0.00 0.00 0.00 50 1017.2
20260504034514 45 141 1.0 1.0 0.00 0.00 0.00 51 1016.8
20260504034011 45 161 1.0 1.0 0.00 0.00 0.00 50 1016.8
20260504033509 46 142 3.0 3.0 0.00 0.00 0.00 49 1017.0
20260504033006 46 140 2.0 2.0 0.00 0.00 0.00 48 1016.6
20260504032503 46 145 1.0 1.0 0.00 0.00 0.00 47 1016.8
20260504031959 46 133 1.0 1.0 0.00 0.00 0.00 47 1016.6
20260504031456 46 53 2.0 3.0 0.00 0.00 0.00 48 1017.0
20260504030953 46 92 2.0 2.0 0.00 0.00 0.00 50 1017.1
20260504030450 46 135 1.0 2.0 0.00 0.00 0.00 50 1016.7
20260504025946 46 57 3.0 5.0 0.00 0.00 0.00 50 1017.0
20260504025443 46 53 3.0 3.0 0.00 0.00 0.00 50 1016.8
20260504024940 46 77 4.0 5.0 0.00 0.00 0.00 51 1017.0
20260504024437 46 148 2.0 3.0 0.00 0.00 0.00 51 1017.4
20260504023934 46 128 2.0 2.0 0.00 0.00 0.00 50 1017.3
20260504023430 46 117 3.0 5.0 0.00 0.00 0.00 50 1017.1
20260504022926 46 68 4.0 5.0 0.00 0.00 0.00 50 1017.3
20260504022423 46 94 3.0 3.0 0.00 0.00 0.00 50 1017.3
20260504021919 46 107 3.0 3.0 0.00 0.00 0.00 49 1017.1
20260504021417 46 108 2.0 3.0 0.00 0.00 0.00 50 1017.0
20260504020914 46 124 2.0 2.0 0.00 0.00 0.00 49 1017.3
20260504020410 46 131 2.0 2.0 0.00 0.00 0.00 49 1017.1
20260504015907 46 129 2.0 2.0 0.00 0.00 0.00 48 1017.0
20260504015403 46 91 3.0 3.0 0.00 0.00 0.00 49 1016.7
20260504014859 46 136 3.0 3.0 0.00 0.00 0.00 48 1016.6
20260504014355 46 148 3.0 3.0 0.00 0.00 0.00 49 1017.0
20260504013853 46 143 1.0 2.0 0.00 0.00 0.00 50 1016.8
20260504013351 46 130 2.0 2.0 0.00 0.00 0.00 50 1016.8
20260504012847 46 126 1.0 2.0 0.00 0.00 0.00 49 1016.8
20260504012345 46 146 1.0 1.0 0.00 0.00 0.00 49 1016.7
20260504011842 46 154 1.0 1.0 0.00 0.00 0.00 49 1017.0
20260504011338 46 146 1.0 2.0 0.00 0.00 0.00 48 1016.6
20260504010835 47 142 1.0 1.0 0.00 0.00 0.00 48 1016.4
20260504010330 47 143 1.0 1.0 0.00 0.00 0.00 47 1016.4
20260504005827 47 132 3.0 3.0 0.00 0.00 0.00 46 1016.3
20260504005324 47 100 3.0 3.0 0.00 0.00 0.00 46 1016.4
20260504004821 47 136 2.0 3.0 0.00 0.00 0.00 47 1016.4
20260504004319 47 127 1.0 1.0 0.00 0.00 0.00 47 1016.2
20260504003815 47 143 2.0 2.0 0.00 0.00 0.00 47 1016.4
20260504003313 48 150 1.0 2.0 0.00 0.00 0.00 47 1016.3
20260504002809 48 128 1.0 2.0 0.00 0.00 0.00 46 1016.5
20260504002306 48 159 1.0 1.0 0.00 0.00 0.00 47 1016.3
20260504001803 49 145 2.0 3.0 0.00 0.00 0.00 46 1016.3
20260504001300 49 120 4.0 6.0 0.00 0.00 0.00 44 1016.3
20260504000757 50 144 2.0 2.0 0.00 0.00 0.00 44 1016.4
20260504000254 50 110 3.0 5.0 0.00 0.00 0.00 42 1016.4
20260503235752 50 135 2.0 2.0 0.00 0.00 0.00 43 1016.1
20260503235249 51 150 3.0 3.0 0.00 0.00 0.00 43 1016.3
20260503234747 51 103 4.0 6.0 0.00 0.00 0.00 42 1016.3
20260503234245 51 132 3.0 3.0 0.00 0.00 0.00 42 1016.4
20260503233741 51 89 3.0 3.0 0.00 0.00 0.00 42 1015.9
20260503233237 52 90 3.0 5.0 0.00 0.00 0.00 42 1016.2
20260503232734 52 115 3.0 3.0 0.00 0.00 0.00 41 1016.3
20260503232231 52 91 3.0 3.0 0.00 0.00 0.00 41 1016.1
20260503231730 52 125 2.0 2.0 0.00 0.00 0.00 42 1016.3
20260503231226 52 100 4.0 6.0 0.00 0.00 0.00 41 1016.1
20260503230722 53 113 5.0 7.0 0.00 0.00 0.00 41 1016.1
20260503230220 53 143 5.0 8.0 0.00 0.00 0.00 39 1016.2
20260503225717 53 143 5.0 8.0 0.00 0.00 0.00 39 1015.9
20260503225217 53 161 5.0 7.0 0.00 0.00 0.00 39 1015.9
20260503224715 53 108 5.0 6.0 0.00 0.00 0.00 39 1016.1
20260503224212 53 131 3.0 3.0 0.00 0.00 0.00 39 1016.2
20260503223710 53 107 3.0 3.0 0.00 0.00 0.00 38 1016.2
20260503223207 53 138 2.0 2.0 0.00 0.00 0.00 40 1016.1
20260503222703 54 132 4.0 5.0 0.00 0.00 0.00 38 1016.2
20260503222201 54 127 3.0 3.0 0.00 0.00 0.00 38 1015.9
20260503221659 53 147 4.0 8.0 0.00 0.00 0.00 39 1016.2
20260503221156 53 161 8.0 10.0 0.00 0.00 0.00 38 1016.1
20260503220653 54 112 5.0 7.0 0.00 0.00 0.00 36 1016.2
20260503220149 54 141 5.0 6.0 0.00 0.00 0.00 38 1016.2
20260503215647 54 124 3.0 3.0 0.00 0.00 0.00 37 1016.1
20260503215143 54 118 4.0 6.0 0.00 0.00 0.00 37 1015.8
20260503214642 54 119 2.0 3.0 0.00 0.00 0.00 39 1016.1
20260503214137 54 142 2.0 3.0 0.00 0.00 0.00 36 1016.1
20260503213632 54 113 2.0 2.0 0.00 0.00 0.00 39 1016.2
20260503213128 54 136 5.0 6.0 0.00 0.00 0.00 39 1016.3
20260503212625 54 128 5.0 7.0 0.00 0.00 0.00 38 1016.4
20260503212123 53 123 2.0 2.0 0.00 0.00 0.00 38 1016.2
20260503211620 54 109 5.0 7.0 0.00 0.00 0.00 37 1016.2
20260503211115 55 101 4.0 6.0 0.00 0.00 0.00 39 1016.2
20260503210612 54 150 8.0 9.0 0.00 0.00 0.00 38 1016.5
20260503210109 54 125 5.0 6.0 0.00 0.00 0.00 38 1016.3
20260503205605 54 137 3.0 3.0 0.00 0.00 0.00 39 1016.5
20260503205101 54 146 4.0 5.0 0.00 0.00 0.00 36 1016.2
20260503204558 54 156 3.0 3.0 0.00 0.00 0.00 36 1016.6
20260503204055 53 152 3.0 5.0 0.00 0.00 0.00 37 1016.5
20260503203552 54 66 5.0 6.0 0.00 0.00 0.00 36 1016.6
20260503203049 53 153 8.0 10.0 0.00 0.00 0.00 37 1016.5
20260503202547 54 159 5.0 7.0 0.00 0.00 0.00 37 1016.7
20260503202039 53 123 3.0 3.0 0.00 0.00 0.00 37 1016.7
20260503201538 53 136 6.0 8.0 0.00 0.00 0.00 35 1016.8
20260503201034 53 88 6.0 9.0 0.00 0.00 0.00 33 1017.1
20260503200529 54 117 7.0 8.0 0.00 0.00 0.00 35 1016.7
20260503200022 54 125 4.0 6.0 0.00 0.00 0.00 34 1017.0
20260503195519 53 118 4.0 5.0 0.00 0.00 0.00 33 1016.7
20260503195015 54 134 3.0 5.0 0.00 0.00 0.00 32 1017.1
20260503194513 53 147 3.0 3.0 0.00 0.00 0.00 34 1017.0
20260503194012 53 115 3.0 3.0 0.00 0.00 0.00 32 1017.0
20260503193509 53 152 5.0 7.0 0.00 0.00 0.00 32 1017.3
20260503193004 53 143 7.0 8.0 0.00 0.00 0.00 31 1017.1
20260503192500 52 155 4.0 6.0 0.00 0.00 0.00 33 1017.0
20260503191956 53 131 8.0 13.0 0.00 0.00 0.00 33 1017.2
20260503191454 52 126 7.0 10.0 0.00 0.00 0.00 32 1017.1
20260503190950 52 81 7.0 9.0 0.00 0.00 0.00 34 1017.2
20260503190448 51 159 8.0 8.0 0.00 0.00 0.00 32 1017.3
20260503185945 53 126 8.0 11.0 0.00 0.00 0.00 32 1017.3
20260503185441 51 108 4.0 5.0 0.00 0.00 0.00 34 1017.4